Peoria, IL

4:05 AM CDT on July 23, 2017 (GMT -0500)
Greater Peoria Regional

Weather History for KPIA - October, 2012

Change the Weather History Date:

Monday, October 8, 2012

  Actual Average Record
Temperature  
Mean Temperature 46 °F 57 °F  
Max Temperature 60 °F 68 °F 88 °F (1938)
Min Temperature 32 °F 46 °F 26 °F (1952)
Degree Days  
Heating Degree Days 19 9  
Month to date heating degree days 107 65  
Since 1 July heating degree days 211 155  
Cooling Degree Days 0 1  
Month to date cooling degree days 0 8  
Year to date cooling degree days 1368 1032  
Moisture  
Dew Point 30 °F    
Average Humidity 55    
Maximum Humidity 82    
Minimum Humidity 28    
Precipitation  
Precipitation 0.00 in 0.08 in 0.60 in (2009)
Month to date precipitation 0.38 0.70  
Year to date precipitation 20.58 28.80  
Snow  
Snow 0.00 in 0.00 in 0.00 in ()
Month to date snowfall 0.0 0.0  
Since 1 July snowfall 0.0 0.0  
Since 1 September snowfall 0.0 0.0  
Snow Depth 0.00 in    
Sea Level Pressure  
Sea Level Pressure 30.11 in    
Wind  
Wind Speed 10 mph (SSW)    
Max Wind Speed 23 mph    
Max Gust Speed 32 mph    
Visibility 10 miles    
Events      
T = Trace of Precipitation, MM = Missing Value Source: NWS Daily Summary

Daily Weather History Graph

Daily Weather History Graph

Search for Another Location

Airport or City:

Trip Planner

Search our weather history database for the weather conditions in past years. The results will help you decide how hot, cold, wet, or windy it might be!

Date:

Astronomy

Oct. 08, 2012 Rise Set
Actual Time 7:02 AM CDT 6:28 PM CDT
Civil Twilight 6:35 AM CDT 6:55 PM CDT
Nautical Twilight 6:03 AM CDT 7:27 PM CDT
Astronomical Twilight 5:32 AM CDT 7:59 PM CDT
Moon No Moon Rise 2:19 PM CDT (10/8)
Length of Visible Light 12h 20m
Length of Day
11h 25m
Last Quarter, 46% of the Moon is Illuminated
Oct 8
Last Quarter
Oct 15
New
Oct 21
First Quarter
Oct 29
Full
Nov 6
Last Quarter

Hourly Weather History & Observations

Time (CDT) Temp. Windchill Dew Point Humidity Pressure Visibility Wind Dir Wind Speed Gust Speed Precip Events Conditions
12:54 AM 35.1 °F - 28.9 °F 78% 30.18 in 10.0 mi Calm Calm - N/A   Clear
1:54 AM 35.1 °F - 28.0 °F 76% 30.19 in 10.0 mi Calm Calm - N/A   Clear
2:54 AM 34.0 °F 31.0 °F 27.0 °F 75% 30.18 in 10.0 mi South 3.5 mph - N/A   Clear
3:54 AM 33.1 °F 30.0 °F 27.0 °F 78% 30.17 in 10.0 mi South 3.5 mph - N/A   Clear
4:54 AM 33.1 °F 30.0 °F 27.0 °F 78% 30.17 in 10.0 mi South 3.5 mph - N/A   Clear
5:54 AM 33.1 °F 30.0 °F 27.0 °F 78% 30.17 in 10.0 mi South 3.5 mph - N/A   Clear
6:54 AM 33.1 °F 30.0 °F 27.0 °F 78% 30.18 in 10.0 mi South 3.5 mph - N/A   Clear
7:54 AM 33.1 °F 28.7 °F 28.9 °F 85% 30.19 in 10.0 mi South 4.6 mph - N/A   Clear
8:54 AM 39.9 °F 33.4 °F 32.0 °F 73% 30.19 in 10.0 mi SSW 10.4 mph - N/A   Clear
9:54 AM 46.9 °F - 33.1 °F 59% 30.18 in 10.0 mi South 9.2 mph - N/A   Clear
10:54 AM 52.0 °F - 34.0 °F 50% 30.16 in 10.0 mi SSW 10.4 mph - N/A   Clear
11:54 AM 55.9 °F - 30.9 °F 39% 30.14 in 10.0 mi SW 16.1 mph 24.2 mph N/A   Clear
12:54 PM 59.0 °F - 28.9 °F 32% 30.11 in 10.0 mi SW 16.1 mph 27.6 mph N/A   Clear
1:54 PM 59.0 °F - 27.0 °F 29% 30.08 in 10.0 mi SW 19.6 mph 25.3 mph N/A   Clear
2:54 PM 59.0 °F - 30.0 °F 33% 30.06 in 10.0 mi SSW 12.7 mph 27.6 mph N/A   Clear
3:54 PM 59.0 °F - 28.0 °F 31% 30.04 in 10.0 mi WSW 16.1 mph 27.6 mph N/A   Clear
4:54 PM 57.9 °F - 28.9 °F 33% 30.02 in 10.0 mi SSW 17.3 mph - N/A   Clear
5:54 PM 55.9 °F - 30.0 °F 37% 30.02 in 10.0 mi SSW 15.0 mph 20.7 mph N/A   Clear
6:54 PM 52.0 °F - 32.0 °F 47% 30.03 in 10.0 mi South 10.4 mph - N/A   Clear
7:54 PM 51.1 °F - 32.0 °F 48% 30.04 in 10.0 mi South 11.5 mph - N/A   Clear
8:54 PM 48.0 °F - 34.0 °F 58% 30.05 in 10.0 mi South 10.4 mph - N/A   Clear
9:54 PM 46.9 °F - 34.0 °F 61% 30.04 in 10.0 mi SSW 8.1 mph - N/A   Clear
10:54 PM 46.0 °F 41.9 °F 34.0 °F 63% 30.04 in 10.0 mi SSW 8.1 mph - N/A   Clear
11:54 PM 45.0 °F 40.6 °F 34.0 °F 65% 30.03 in 10.0 mi SSW 8.1 mph - N/A   Clear